TimeCDT,TemperatureF,Dew PointF,Humidity,Sea Level PressureIn,VisibilityMPH,Wind Direction,Wind SpeedMPH,Gust SpeedMPH,PrecipitationIn,Events,Conditions,WindDirDegrees,DateUTC
12:15 AM,55.4,53.6,94,30.05,10.0,Calm,Calm,-,N/A,,Clear,0,2012-10-01 05:15:00
12:35 AM,55.4,53.6,94,30.04,10.0,Calm,Calm,-,N/A,,Clear,0,2012-10-01 05:35:00
12:55 AM,55.4,53.6,94,30.03,10.0,WNW,4.6,-,N/A,,Clear,290,2012-10-01 05:55:00
1:15 AM,53.6,51.8,94,30.04,10.0,WNW,6.9,-,N/A,,Clear,290,2012-10-01 06:15:00
1:35 AM,53.6,51.8,94,30.03,10.0,West,6.9,-,N/A,,Clear,270,2012-10-01 06:35:00
1:55 AM,53.6,51.8,94,30.03,10.0,West,10.4,-,N/A,,Clear,260,2012-10-01 06:55:00
2:35 AM,53.6,50.0,88,30.03,10.0,West,11.5,-,N/A,,Clear,280,2012-10-01 07:35:00
3:15 AM,51.8,50.0,94,30.03,10.0,WNW,10.4,-,N/A,,Clear,290,2012-10-01 08:15:00
3:35 AM,51.8,50.0,94,30.03,10.0,WNW,10.4,-,N/A,,Clear,300,2012-10-01 08:35:00
3:55 AM,51.8,50.0,94,30.03,10.0,WNW,9.2,-,N/A,,Clear,300,2012-10-01 08:55:00
4:15 AM,51.8,48.2,88,30.03,10.0,NW,9.2,-,N/A,,Clear,310,2012-10-01 09:15:00
4:35 AM,51.8,48.2,88,30.04,10.0,WNW,9.2,-,N/A,,Clear,300,2012-10-01 09:35:00
4:55 AM,51.8,48.2,88,30.04,10.0,NW,6.9,-,N/A,,Clear,310,2012-10-01 09:55:00
5:15 AM,51.8,46.4,82,30.04,10.0,NNW,6.9,-,N/A,,Clear,340,2012-10-01 10:15:00
5:35 AM,51.8,46.4,82,30.05,10.0,NNW,6.9,-,N/A,,Clear,330,2012-10-01 10:35:00
6:15 AM,51.8,46.4,82,30.06,10.0,NNW,10.4,-,N/A,,Clear,340,2012-10-01 11:15:00
6:35 AM,51.8,46.4,82,30.06,10.0,NNW,9.2,-,N/A,,Clear,340,2012-10-01 11:35:00
6:55 AM,51.8,46.4,82,30.07,10.0,NNW,9.2,-,N/A,,Clear,330,2012-10-01 11:55:00
7:15 AM,51.8,46.4,82,30.07,10.0,NNW,8.1,-,N/A,,Clear,340,2012-10-01 12:15:00
7:35 AM,51.8,46.4,82,30.09,10.0,NNW,10.4,-,N/A,,Clear,340,2012-10-01 12:35:00
7:55 AM,51.8,46.4,82,30.08,10.0,NNW,12.7,-,N/A,,Clear,330,2012-10-01 12:55:00
8:15 AM,53.6,46.4,77,30.09,10.0,NNW,15.0,18.4,N/A,,Clear,340,2012-10-01 13:15:00
8:35 AM,53.6,46.4,77,30.10,10.0,NNW,16.1,-,N/A,,Clear,340,2012-10-01 13:35:00
8:55 AM,55.4,48.2,77,30.10,10.0,NNW,13.8,-,N/A,,Clear,340,2012-10-01 13:55:00
9:15 AM,57.2,50.0,77,30.11,10.0,North,15.0,-,N/A,,Clear,350,2012-10-01 14:15:00
9:35 AM,59.0,50.0,72,30.12,10.0,North,18.4,26.5,N/A,,Clear,350,2012-10-01 14:35:00
10:15 AM,62.6,51.8,68,30.14,10.0,North,20.7,31.1,N/A,,Clear,360,2012-10-01 15:15:00
10:35 AM,64.4,51.8,64,30.14,10.0,North,27.6,32.2,N/A,,Clear,360,2012-10-01 15:35:00
10:55 AM,66.2,51.8,60,30.15,10.0,North,20.7,35.7,N/A,,Clear,360,2012-10-01 15:55:00
11:15 AM,66.2,50.0,56,30.15,10.0,North,26.5,38.0,N/A,,Clear,360,2012-10-01 16:15:00
11:35 AM,66.2,48.2,52,30.15,10.0,North,29.9,39.1,N/A,,Clear,360,2012-10-01 16:35:00
11:55 AM,66.2,48.2,52,30.15,10.0,North,26.5,35.7,N/A,,Clear,360,2012-10-01 16:55:00
12:15 PM,66.2,46.4,49,30.15,10.0,North,24.2,34.5,N/A,,Clear,10,2012-10-01 17:15:00
12:35 PM,68.0,46.4,46,30.15,10.0,North,24.2,33.4,N/A,,Clear,10,2012-10-01 17:35:00
12:55 PM,68.0,46.4,46,30.15,10.0,NNE,23.0,32.2,N/A,,Clear,20,2012-10-01 17:55:00
1:15 PM,69.8,48.2,46,30.15,10.0,NNE,19.6,31.1,N/A,,Clear,20,2012-10-01 18:15:00
1:35 PM,69.8,48.2,46,30.16,10.0,North,19.6,31.1,N/A,,Scattered Clouds,10,2012-10-01 18:35:00
1:55 PM,69.8,48.2,46,30.15,10.0,NNE,21.9,28.8,N/A,,Scattered Clouds,20,2012-10-01 18:55:00
2:15 PM,69.8,46.4,43,30.15,10.0,NNE,20.7,31.1,N/A,,Scattered Clouds,20,2012-10-01 19:15:00
2:55 PM,69.8,46.4,43,30.14,10.0,North,21.9,33.4,N/A,,Clear,10,2012-10-01 19:55:00
3:15 PM,69.8,46.4,43,30.13,10.0,North,20.7,27.6,N/A,,Clear,10,2012-10-01 20:15:00
3:35 PM,68.0,46.4,46,30.13,10.0,North,21.9,28.8,N/A,,Scattered Clouds,10,2012-10-01 20:35:00
3:55 PM,69.8,44.6,40,30.14,10.0,North,19.6,31.1,N/A,,Clear,10,2012-10-01 20:55:00
4:15 PM,69.8,46.4,43,30.13,10.0,NNE,19.6,26.5,N/A,,Scattered Clouds,20,2012-10-01 21:15:00
4:35 PM,69.8,44.6,40,30.13,10.0,North,16.1,28.8,N/A,,Clear,10,2012-10-01 21:35:00
5:15 PM,68.0,42.8,40,30.12,10.0,NNE,18.4,24.2,N/A,,Clear,30,2012-10-01 22:15:00
5:35 PM,69.8,44.6,40,30.12,10.0,North,11.5,19.6,N/A,,Clear,10,2012-10-01 22:35:00
5:55 PM,68.0,42.8,40,30.12,10.0,NNE,15.0,-,N/A,,Clear,30,2012-10-01 22:55:00
6:15 PM,68.0,42.8,40,30.12,10.0,NNE,13.8,17.3,N/A,,Clear,20,2012-10-01 23:15:00
6:35 PM,64.4,44.6,49,30.12,10.0,North,6.9,-,N/A,,Clear,10,2012-10-01 23:35:00
6:55 PM,62.6,44.6,52,30.13,10.0,NE,11.5,19.6,N/A,,Clear,50,2012-10-01 23:55:00
7:15 PM,60.8,44.6,55,30.13,10.0,NE,6.9,-,N/A,,Clear,40,2012-10-02 00:15:00
7:35 PM,59.0,44.6,59,30.13,10.0,North,4.6,-,N/A,,Clear,360,2012-10-02 00:35:00
7:55 PM,55.4,46.4,72,30.13,10.0,North,5.8,-,N/A,,Clear,360,2012-10-02 00:55:00
8:15 PM,55.4,46.4,72,30.14,10.0,North,6.9,-,N/A,,Clear,350,2012-10-02 01:15:00
8:35 PM,55.4,46.4,72,30.14,10.0,North,4.6,-,N/A,,Clear,350,2012-10-02 01:35:00
8:55 PM,55.4,46.4,72,30.15,10.0,North,4.6,-,N/A,,Clear,350,2012-10-02 01:55:00
9:15 PM,53.6,46.4,77,30.15,10.0,North,3.5,-,N/A,,Clear,10,2012-10-02 02:15:00
9:35 PM,53.6,46.4,77,30.15,10.0,North,4.6,-,N/A,,Clear,350,2012-10-02 02:35:00
9:55 PM,51.8,46.4,82,30.16,10.0,North,5.8,-,N/A,,Clear,350,2012-10-02 02:55:00
10:15 PM,50.0,46.4,87,30.16,10.0,NNW,5.8,-,N/A,,Clear,340,2012-10-02 03:15:00
10:35 PM,50.0,46.4,87,30.16,10.0,North,3.5,-,N/A,,Clear,350,2012-10-02 03:35:00
10:55 PM,50.0,44.6,82,30.16,10.0,NNW,4.6,-,N/A,,Clear,330,2012-10-02 03:55:00
11:15 PM,50.0,44.6,82,30.16,10.0,NNW,4.6,-,N/A,,Clear,340,2012-10-02 04:15:00
11:35 PM,48.2,44.6,87,30.16,10.0,NNW,3.5,-,N/A,,Clear,340,2012-10-02 04:35:00
11:55 PM,48.2,44.6,87,30.16,10.0,NNW,4.6,-,N/A,,Clear,330,2012-10-02 04:55:00